Tracking 25648 objects as of 17-May-2022
HD Live streaming from Space Station
objects crossing your sky now

COSMOS 520

Track COSMOS 520 now!
COSMOS 520 is classified as:


NORAD ID: 6192
Int'l Code: 1972-072A
Perigee: 8,672.6 km
Apogee: 31,571.4 km
Inclination: 72.4 °
Period: 715.2 minutes
Semi major axis: 26492 km
RCS: 12.5618 m2 (large)
Launch date: September 19, 1972
Source: Commonwealth of Independent States (former USSR) (CIS)
Launch site: PLESETSK MISSILE AND SPACE COMPLEX (PKMTR)
aabbcc
Your satellite tracking list
Your tracking list is empty




NASA's NSSDC Master Catalog

Two Line Element Set (TLE):
1 06192U 72072A   22136.32923547  .00000072  00000-0  00000-0 0  9994
2 06192  72.4409 277.4521 4321659 232.5855  79.5139  2.01329011365124
Source of the keplerian elements: AFSPC